COSMOS 1879

导读

COSMOS 1879(宇宙1879)是苏联(CIS)于1987年9月7日发射的“宇宙”系列卫星。“宇宙”系列是世界上卫星数量最多的卫星家族,涵盖军用与民用多类航天器,该卫星也延续了系列多任务属性。作为冷战时期苏联航天项目的产物,它大概率承担军事侦察或技术试验任务,服役期间完成既定太空任务,是苏联航天发展历程中的一颗代表性卫星。

基本信息
目录编号:
18338
目录名称:
COSMOS 1879
国际标识:
1987-074E
轨道中心:
EARTH
卫星名称:
COSMOS 1879
卫星全名:
--
卫星状态:
在轨 (已飞行14161 天)
发射日期:
1987-09-07 UTC
国别 :
俄罗斯(独联体) (CIS)
星等 :
--
轨道信息
数据来源 国际轨道数据 AOE轨道数据
星历时间 2026-06-15T04:50:00+0800
10小时前
查看轨道信息
2026-06-15T06:00:00+0800
9小时前
查看轨道信息
半长轴 7780.396km 7780.397km
偏心率 0.0006107 0.0006092
轨道倾角 82.571° 82.572°
近地点辐角 199.180° 198.824°
升交点赤经 284.673° 284.642°
平近点角 279.865° 141.465°
近地点 1397.507km 1397.52km
远地点 1407.011km 1407km
周期 113.831分钟 113.831分钟
每日圈数 12.650283 12.650281
详细信息
使用方式:
暂无
2D轨道图
3D轨道图
轨道高度分析图
轨道倾角分析图
轨道综合分析图
查看轨道综合分析图